| time (UTC) | temp F | wind direction | speed MPH | gust MPH | rain 1hr in | rain 24hr in | rain mn in | humidity % | barometer mb |
| 20260505191725 | 53 | 175 | 9.0 | 13.0 | 0.00 | 0.47 | 0.47 | 83 | 1008.9 |
| 20260505190732 | 52 | 202 | 9.0 | 13.0 | 0.00 | 0.47 | 0.47 | 85 | 1009.1 |
| 20260505185730 | 52 | 191 | 8.0 | 13.0 | 0.00 | 0.47 | 0.47 | 85 | 1009.0 |
| 20260505184757 | 53 | 209 | 7.0 | 13.0 | 0.00 | 0.47 | 0.47 | 89 | 1009.0 |
| 20260505183801 | 52 | 202 | 8.0 | 10.0 | 0.01 | 0.47 | 0.47 | 88 | 1009.0 |
| 20260505182725 | 51 | 188 | 6.0 | 10.0 | 0.01 | 0.47 | 0.47 | 89 | 1009.1 |
| 20260505181728 | 50 | 193 | 6.0 | 8.0 | 0.03 | 0.47 | 0.47 | 91 | 1009.1 |
| 20260505180730 | 50 | 241 | 3.0 | 6.0 | 0.04 | 0.47 | 0.47 | 90 | 1009.3 |
| 20260505175729 | 49 | 190 | 3.0 | 4.0 | 0.05 | 0.47 | 0.47 | 90 | 1009.4 |
| 20260505174737 | 49 | 190 | 3.0 | 4.0 | 0.06 | 0.47 | 0.47 | 90 | 1009.4 |
| 20260505173725 | 49 | 232 | 1.0 | 3.0 | 0.06 | 0.46 | 0.46 | 89 | 1009.5 |
| 20260505172734 | 49 | 252 | 2.0 | 3.0 | 0.06 | 0.46 | 0.46 | 89 | 1009.5 |
| 20260505171746 | 49 | 324 | 0.0 | 3.0 | 0.04 | 0.44 | 0.44 | 89 | 1009.6 |
| 20260505170734 | 50 | 313 | 2.0 | 5.0 | 0.03 | 0.43 | 0.43 | 89 | 1009.5 |
| 20260505165725 | 50 | 340 | 1.0 | 4.0 | 0.02 | 0.42 | 0.42 | 89 | 1009.3 |
| 20260505164729 | 50 | 57 | 0.0 | 4.0 | 0.01 | 0.41 | 0.41 | 89 | 1009.1 |
| 20260505163736 | 50 | 55 | 2.0 | 4.0 | 0.00 | 0.40 | 0.40 | 88 | 1008.9 |
| 20260505162725 | 50 | 277 | 1.0 | 5.0 | 0.00 | 0.40 | 0.40 | 89 | 1008.8 |
| 20260505161733 | 50 | 316 | 3.0 | 8.0 | 0.00 | 0.40 | 0.40 | 88 | 1008.9 |
| 20260505160740 | 50 | 334 | 2.0 | 5.0 | 0.00 | 0.40 | 0.40 | 89 | 1008.8 |
| 20260505152722 | 48 | 140 | 2.0 | 4.0 | 0.06 | 0.40 | 0.40 | 89 | 1008.7 |
| 20260505151728 | 48 | 110 | 2.0 | 7.0 | 0.09 | 0.40 | 0.40 | 89 | 1008.7 |
| 20260505150739 | 48 | 97 | 3.0 | 8.0 | 0.13 | 0.40 | 0.40 | 90 | 1008.7 |
| 20260505124731 | 51 | 68 | 3.0 | 6.0 | 0.11 | 0.19 | 0.19 | 88 | 1007.5 |
| 20260505123739 | 50 | 58 | 4.0 | 7.0 | 0.11 | 0.17 | 0.17 | 88 | 1007.5 |
| 20260505122727 | 50 | 71 | 4.0 | 6.0 | 0.10 | 0.15 | 0.15 | 88 | 1007.5 |
| 20260505121738 | 50 | 13 | 3.0 | 8.0 | 0.10 | 0.14 | 0.14 | 87 | 1007.5 |
| 20260505120721 | 51 | 9 | 5.0 | 9.0 | 0.11 | 0.12 | 0.12 | 87 | 1007.3 |
| 20260505115736 | 51 | 20 | 4.0 | 6.0 | 0.10 | 0.10 | 0.10 | 86 | 1007.1 |
| 20260505114723 | 51 | 329 | 4.0 | 8.0 | 0.08 | 0.08 | 0.08 | 85 | 1007.0 |
| 20260505113733 | 51 | 24 | 1.0 | 4.0 | 0.06 | 0.06 | 0.06 | 84 | 1006.8 |
| 20260505112720 | 52 | 13 | 3.0 | 6.0 | 0.05 | 0.05 | 0.05 | 83 | 1006.7 |
| 20260505111728 | 52 | 9 | 3.0 | 4.0 | 0.04 | 0.04 | 0.04 | 81 | 1006.6 |
| 20260505110737 | 52 | 34 | 3.0 | 4.0 | 0.01 | 0.01 | 0.01 | 79 | 1006.6 |
| 20260505101724 | 54 | 86 | 0.0 | 1.0 | 0.00 | 0.00 | 0.00 | 73 | 1006.2 |
| 20260505100733 | 54 | 86 | 1.0 | 2.0 | 0.00 | 0.00 | 0.00 | 72 | 1006.2 |
| 20260505095727 | 55 | 86 | 1.0 | 4.0 | 0.00 | 0.00 | 0.00 | 70 | 1006.2 |
| 20260505094734 | 56 | 27 | 1.0 | 3.0 | 0.00 | 0.00 | 0.00 | 68 | 1006.1 |
| 20260505093726 | 56 | 26 | 2.0 | 3.0 | 0.00 | 0.00 | 0.00 | 66 | 1006.0 |
| 20260505092723 | 56 | 26 | 1.0 | 3.0 | 0.00 | 0.00 | 0.00 | 67 | 1006.0 |
| 20260505091727 | 55 | 9 | 4.0 | 11.0 | 0.00 | 0.00 | 0.00 | 67 | 1006.1 |
| 20260505090731 | 55 | 336 | 5.0 | 9.0 | 0.00 | 0.00 | 0.00 | 69 | 1006.2 |
| 20260505085746 | 55 | 69 | 4.0 | 9.0 | 0.00 | 0.00 | 0.00 | 68 | 1006.3 |
| 20260505084755 | 55 | 67 | 5.0 | 11.0 | 0.00 | 0.00 | 0.00 | 70 | 1006.5 |
| 20260505083722 | 55 | 61 | 7.0 | 13.0 | 0.00 | 0.00 | 0.00 | 72 | 1006.6 |
| 20260505082727 | 55 | 55 | 9.0 | 14.0 | 0.00 | 0.00 | 0.00 | 70 | 1006.8 |
| 20260505081734 | 56 | 24 | 3.0 | 13.0 | 0.00 | 0.00 | 0.00 | 68 | 1007.0 |
| 20260505080727 | 55 | 355 | 4.0 | 6.0 | 0.00 | 0.00 | 0.00 | 68 | 1007.0 |
| 20260505075739 | 55 | 57 | 3.0 | 8.0 | 0.00 | 0.00 | 0.00 | 66 | 1006.9 |
| 20260505074725 | 54 | 65 | 5.0 | 7.0 | 0.00 | 0.00 | 0.00 | 67 | 1006.8 |
| 20260505073731 | 55 | 88 | 6.0 | 9.0 | 0.00 | 0.00 | 0.00 | 66 | 1006.6 |
| 20260505072722 | 55 | 360 | 2.0 | 4.0 | 0.00 | 0.00 | 0.00 | 62 | 1006.7 |
| 20260505071749 | 55 | 348 | 0.0 | 3.0 | 0.00 | 0.00 | 0.00 | 62 | 1006.4 |
| 20260505070734 | 54 | 348 | 1.0 | 5.0 | 0.00 | 0.00 | 0.00 | 63 | 1006.2 |
| 20260505065730 | 53 | 336 | 2.0 | 6.0 | 0.00 | 0.00 | 0.00 | 64 | 1006.0 |
| 20260505064736 | 53 | 165 | 3.0 | 5.0 | 0.00 | 0.00 | 0.00 | 64 | 1005.9 |
| 20260505063725 | 56 | 165 | 4.0 | 6.0 | 0.00 | 0.00 | 0.00 | 58 | 1006.0 |
| 20260505062732 | 59 | 249 | 4.0 | 8.0 | 0.00 | 0.00 | 0.00 | 52 | 1005.8 |
| 20260505061739 | 60 | 96 | 6.0 | 8.0 | 0.00 | 0.00 | 0.00 | 47 | 1005.6 |
| 20260505060724 | 59 | 70 | 2.0 | 4.0 | 0.00 | 0.00 | 0.00 | 50 | 1005.7 |
| 20260505055733 | 60 | 70 | 2.0 | 7.0 | 0.00 | 0.00 | 0.00 | 48 | 1005.7 |
| 20260505054722 | 59 | 78 | 5.0 | 8.0 | 0.00 | 0.00 | 0.00 | 49 | 1005.7 |
| 20260505053729 | 59 | 84 | 2.0 | 6.0 | 0.00 | 0.00 | 0.00 | 47 | 1005.7 |
| 20260505052734 | 58 | 82 | 3.0 | 5.0 | 0.00 | 0.00 | 0.00 | 47 | 1005.8 |
| 20260505051721 | 58 | 55 | 3.0 | 5.0 | 0.00 | 0.00 | 0.00 | 47 | 1005.8 |
| 20260505050731 | 58 | 53 | 3.0 | 5.0 | 0.00 | 0.00 | 0.00 | 46 | 1005.8 |
| 20260505041731 | 61 | 194 | 1.0 | 4.0 | 0.00 | 0.00 | 0.00 | 45 | 1005.0 |
| 20260505040733 | 62 | 193 | 0.0 | 2.0 | 0.00 | 0.00 | 0.00 | 44 | 1004.9 |
| 20260505035747 | 62 | 193 | 0.0 | 2.0 | 0.00 | 0.00 | 0.00 | 45 | 1004.9 |
| 20260505034733 | 62 | 194 | 2.0 | 4.0 | 0.00 | 0.00 | 0.00 | 45 | 1005.0 |
| 20260505033726 | 60 | 143 | 2.0 | 4.0 | 0.00 | 0.00 | 0.00 | 46 | 1004.7 |
| 20260505032735 | 59 | 132 | 4.0 | 5.0 | 0.00 | 0.00 | 0.00 | 46 | 1004.7 |
| 20260505031723 | 59 | 351 | 2.0 | 3.0 | 0.00 | 0.00 | 0.00 | 50 | 1004.7 |
| 20260505030736 | 60 | 350 | 1.0 | 3.0 | 0.00 | 0.00 | 0.00 | 46 | 1004.5 |
| 20260505025729 | 60 | 350 | 3.0 | 4.0 | 0.00 | 0.00 | 0.00 | 47 | 1004.4 |
| 20260505024736 | 62 | 350 | 2.0 | 3.0 | 0.00 | 0.00 | 0.00 | 44 | 1004.2 |
| 20260505023758 | 63 | 348 | 1.0 | 3.0 | 0.00 | 0.00 | 0.00 | 40 | 1004.1 |
| 20260505022724 | 64 | 11 | 4.0 | 8.0 | 0.00 | 0.00 | 0.00 | 43 | 1004.0 |
| 20260505021733 | 64 | 136 | 1.0 | 4.0 | 0.00 | 0.00 | 0.00 | 42 | 1003.7 |
| 20260505020738 | 65 | 85 | 3.0 | 6.0 | 0.00 | 0.00 | 0.00 | 38 | 1003.6 |
| 20260505015728 | 66 | 82 | 4.0 | 5.0 | 0.00 | 0.00 | 0.00 | 37 | 1003.7 |
| 20260505014733 | 67 | 328 | 2.0 | 3.0 | 0.00 | 0.00 | 0.00 | 38 | 1003.7 |
| 20260505013724 | 69 | 328 | 2.0 | 3.0 | 0.00 | 0.00 | 0.00 | 35 | 1003.7 |
| 20260505012751 | 70 | 328 | 0.0 | 3.0 | 0.00 | 0.00 | 0.00 | 32 | 1003.8 |
| 20260505011754 | 71 | 328 | 2.0 | 4.0 | 0.00 | 0.00 | 0.00 | 27 | 1003.8 |
| 20260505010737 | 72 | 312 | 2.0 | 4.0 | 0.00 | 0.00 | 0.00 | 26 | 1003.9 |
| 20260505005727 | 71 | 34 | 1.0 | 3.0 | 0.00 | 0.00 | 0.00 | 27 | 1003.9 |
| 20260505004736 | 69 | 34 | 2.0 | 4.0 | 0.00 | 0.00 | 0.00 | 29 | 1004.0 |
| 20260505003723 | 68 | 63 | 2.0 | 5.0 | 0.00 | 0.00 | 0.00 | 34 | 1004.1 |
| 20260505002751 | 68 | 63 | 2.0 | 8.0 | 0.00 | 0.00 | 0.00 | 32 | 1004.4 |
| 20260505001738 | 68 | 54 | 5.0 | 12.0 | 0.00 | 0.00 | 0.00 | 31 | 1004.4 |
| 20260505000735 | 67 | 80 | 10.0 | 14.0 | 0.00 | 0.00 | 0.00 | 30 | 1004.4 |
| 20260504235730 | 68 | 85 | 6.0 | 12.0 | 0.00 | 0.00 | 0.00 | 31 | 1004.4 |
| 20260504234734 | 68 | 265 | 9.0 | 23.0 | 0.00 | 0.00 | 0.00 | 29 | 1004.3 |
| 20260504233737 | 67 | 264 | 12.0 | 24.0 | 0.00 | 0.00 | 0.00 | 31 | 1004.4 |
| 20260504232720 | 67 | 267 | 11.0 | 23.0 | 0.00 | 0.00 | 0.00 | 30 | 1004.3 |
| 20260504231731 | 67 | 288 | 11.0 | 19.0 | 0.00 | 0.00 | 0.00 | 32 | 1004.4 |
| 20260504230737 | 67 | 269 | 11.0 | 18.0 | 0.00 | 0.00 | 0.00 | 34 | 1004.6 |
| 20260504225729 | 67 | 302 | 9.0 | 23.0 | 0.00 | 0.00 | 0.00 | 34 | 1004.6 |
| 20260504224736 | 69 | 277 | 13.0 | 21.0 | 0.00 | 0.00 | 0.00 | 32 | 1004.7 |
| 20260504223727 | 73 | 290 | 8.0 | 14.0 | 0.00 | 0.00 | 0.00 | 27 | 1004.4 |
| 20260504222737 | 74 | 261 | 1.0 | 8.0 | 0.00 | 0.00 | 0.00 | 21 | 1004.2 |
| 20260504221721 | 74 | 269 | 4.0 | 7.0 | 0.00 | 0.00 | 0.00 | 21 | 1004.1 |
| 20260504220730 | 74 | 252 | 6.0 | 10.0 | 0.00 | 0.00 | 0.00 | 23 | 1004.1 |
| 20260504215726 | 74 | 202 | 3.0 | 9.0 | 0.00 | 0.00 | 0.00 | 22 | 1004.3 |
| 20260504214730 | 74 | 234 | 2.0 | 7.0 | 0.00 | 0.00 | 0.00 | 23 | 1004.5 |
| 20260504213734 | 74 | 233 | 4.0 | 9.0 | 0.00 | 0.00 | 0.00 | 25 | 1004.8 |
| 20260504212719 | 74 | 278 | 5.0 | 8.0 | 0.00 | 0.00 | 0.00 | 25 | 1005.0 |
| 20260504211729 | 73 | 286 | 3.0 | 10.0 | 0.00 | 0.00 | 0.00 | 26 | 1005.1 |
| 20260504210735 | 73 | 244 | 2.0 | 7.0 | 0.00 | 0.00 | 0.00 | 29 | 1005.2 |
| 20260504205731 | 73 | 188 | 6.0 | 8.0 | 0.00 | 0.00 | 0.00 | 30 | 1005.4 |
| 20260504204740 | 73 | 210 | 4.0 | 8.0 | 0.00 | 0.00 | 0.00 | 27 | 1005.5 |
| 20260504203728 | 72 | 282 | 2.0 | 9.0 | 0.00 | 0.00 | 0.00 | 32 | 1005.6 |
| 20260504202741 | 72 | 119 | 3.0 | 10.0 | 0.00 | 0.00 | 0.00 | 32 | 1005.7 |
| 20260504201729 | 71 | 187 | 4.0 | 10.0 | 0.00 | 0.00 | 0.00 | 36 | 1005.8 |
| 20260504200737 | 71 | 128 | 4.0 | 8.0 | 0.00 | 0.00 | 0.00 | 34 | 1006.0 |
| 20260504195731 | 71 | 192 | 4.0 | 9.0 | 0.00 | 0.00 | 0.00 | 34 | 1006.2 |
| 20260504194722 | 71 | 122 | 2.0 | 5.0 | 0.00 | 0.00 | 0.00 | 34 | 1006.3 |
| 20260504193729 | 70 | 204 | 3.0 | 9.0 | 0.00 | 0.00 | 0.00 | 34 | 1006.5 |
| 20260504192734 | 69 | 135 | 5.0 | 8.0 | 0.00 | 0.00 | 0.00 | 34 | 1006.6 |